Regional Weather Roundup
Issued by NWS Kansas City/Pleasant Hill, MO

Home | Current Version | Previous Version | Text Only | Print | Product List | Glossary On
Versions: 1 2 3 4 5 6 7 8 9 10 11 12 13 14 15 16 17 18 19 20 21 22 23 24 25 26 27 28 29 30 31 32 33 34 35 36 37 38 39 40 41 42 43 44 45 46 47 48 49 50
000
ASUS43 KEAX 142310
RWREAX

WEATHER ROUNDUP FOR EASTERN KANSAS AND NORTHWEST MISSOURI
NATIONAL WEATHER SERVICE KANSAS CITY/PLEASANT HILL MO
500 PM CST SUN FEB 14 2016

KSZ040-057-103>105-MOZ028-029-037-043-150000-
...KANSAS CITY METROPOLITAN AREA...

CITY           SKY/WX    TMP DP  RH WIND       PRES   REMARKS
K.C. INTL      PTCLDY    49  30  48 W9        29.85R
K.C. DOWNTOWN  CLEAR     51  28  41 NW8       29.85R
LEES SUMMIT    CLEAR     50  30  46 W9        29.85R
OLATHE - IXD   CLEAR     49  30  48 SW8       29.86R
OLATHE - OJC   CLEAR     48  29  47 SW8       29.86R
LAWRENCE       CLEAR     51  30  44 NW10      29.86R

$$

MOZ001>008-011>017-020>025-030>033-038>040-044>046-053-054-150000-
...NORTHERN AND CENTRAL MISSOURI...

CITY           SKY/WX    TMP DP  RH WIND       PRES   REMARKS
ST. JOSEPH     CLEAR     48  29  47 NW10      29.85S
MOSBY          CLEAR     48  28  46 W8        29.85S
WARRENSBURG    CLEAR     46  32  57 SW5       29.86R
WHITEMAN AFB   CLEAR     46  32  58 W5        29.85S
CLINTON          N/A     48  32  53 SW7       29.86F
SEDALIA        CLEAR     41  32  70 S9        29.88S
WARSAW         NOT AVBL
CHILLICOTHE      N/A     46  27  47 VRB5      29.85S
KIRKSVILLE     CLOUDY    28  23  81 E7        29.88S WCI  21

$$

MOZ041-047>049-056>058-063>065-088>090-097-150000-
...EASTERN AND SOUTHERN MISSOURI...

CITY           SKY/WX    TMP DP  RH WIND       PRES   REMARKS
ST. LOUIS INTL CLOUDY    28  22  78 SE12      29.96F WCI  18
SPIRIT OF STL  CLOUDY    28  23  81 SE7       29.96S WCI  21
COLUMBIA       CLOUDY    33  28  81 S7        29.89S WCI  27
JEFFERSON CITY CLOUDY    34  28  79 S8        29.92R WCI  27
ROLLA          CLOUDY    30  28  92 SW9       29.89R WCI  22
OSAGE BEACH    CLOUDY    34  28  80 CALM      29.90S
SPRINGFIELD    CLOUDY    36  30  79 S9        29.90S WCI  29
BRANSON        CLOUDY    36  28  75 CALM      29.93R
JOPLIN         CLOUDY    51  36  56 S7        29.87F
WEST PLAINS    CLOUDY    29  26  89 S3        29.94R FOG

$$

IAZ060-094-KSZ022-034>040-054-083-096-NEZ052-066-093-150000-
...KANSAS...SOUTHEAST NEBRASKA AND IOWA...

CITY           SKY/WX    TMP DP  RH WIND       PRES   REMARKS
TOPEKA         CLEAR     52  27  38 NW5       29.85S
MANHATTAN      SUNNY     53  27  36 NW6       29.86R
EMPORIA        CLOUDY    53  25  33 W7        29.86R
CHANUTE        CLOUDY    55  29  36 W7        29.86S
WICHITA        CLOUDY    53  27  36 W6        29.90R
OMAHA          CLOUDY    36  29  75 NW9       29.85S WCI  29
LINCOLN        CLOUDY    40  33  76 CALM      29.87S
FALLS CITY     PTCLDY    43  31  62 N10       29.85R
LAMONI         CLOUDY    33  26  75 E7        29.83R WCI  27
DES MOINES     CLOUDY    24  17  74 SE7       29.89R WCI  16

$$




USA.gov is the U.S. government's official web portal to all federal, state and local government web resources and services.